{"data":{"norad_id":54588,"epoch":"2026-09-21T23:01:40.414656Z","epoch_age_seconds":36099,"freshness":"FRESH","line1":"1 54588U 22164A   26264.95949554  .00000225  00000+0  74809-4 0  9995","line2":"2 54588  98.2418 281.4593 0010625  39.1963 320.9997 14.46124798200064","mean_motion":14.46124798,"eccentricity":0.0010625,"inclination_deg":98.2418,"raan_deg":281.4593,"arg_perigee_deg":39.1963,"mean_anomaly_deg":320.9997,"bstar":7.4809e-5,"rev_number":20006,"period_min":99.576468226776,"perigee_km":730.77234235005,"apogee_km":745.8948423588,"semimajor_km":7116.4705923544,"source":"CELESTRAK","updated_at":"2026-09-22T09:00:25.146726Z"}}